Skip Page Navigation
NASA JPL Caltech
NASA Logo - Jet Propulsion Laboratory + View the NASA Portal
+ Center for Near-Earth Object Studies
JPL Home Earth Solar System Stars & Galaxies Technology
JPL Solar System Dynamics
BODIES ORBITS EPHEMERIDES TOOLS PHYSICAL DATA DISCOVERY FAQ SITE MAP
IMPORTANT: The SSD Announcement email list is now available. Major changes are coming in the near future, including possible hostname and/or URL changes. To be notified of such changes, subscribe to this email list.

Please visit this page for more details.


JPL Small-Body Database Browser
Search: [ help ]  
534626 (2014 UT224)
Classification: TransNeptunian Object          SPK-ID: 2534626
Ephemeris | Orbit Diagram | Orbital Elements | Physical Parameters | Discovery Circumstances ]

[ show orbit diagram ]
Orbital Elements at Epoch 2458600.5 (2019-Apr-27.0) TDB
Reference: JPL 7 (heliocentric ecliptic J2000)
 Element Value Uncertainty (1-sigma)   Units 
e .2607762529996377 2.7328e-05  
a 47.62353504534777 0.0021467 au
q 35.20444802162504 0.00030177 au
i 3.888863827078513 6.3281e-05 deg
node 81.78458040338184 0.00037376 deg
peri 328.9047221670898 0.0041307 deg
M 10.43211656284287 0.0026562 deg
tp 2455121.929566303501
(2009-Oct-17.42956630)
0.7722 TDB
period 120041.3500546123
328.66
8.1164
0.02222
d
yr
n .002998966604725952 2.0277e-07 deg/d
Q 60.04262206907049 0.0027064 au
  Orbit Determination Parameters
   # obs. used (total)      161  
   data-arc span      5165 days (14.14 yr)  
   first obs. used      2003-11-20  
   last obs. used      2018-01-10  
   planetary ephem.      DE431  
   SB-pert. ephem.      SB431-N16  
   condition code      2  
   norm. resid. RMS      .60828  
   source      ORB  
   producer      Otto Matic  
   solution date      2019-May-30 11:26:10  

Additional Information
 Earth MOID = 34.2155 au 
 Jupiter MOID = 30.198 au 
 T_jup = 5.937 
[ show covariance matrix ]

Ephemeris | Orbit Diagram | Orbital Elements | Physical Parameters | Discovery Circumstances ]

Physical Parameter Table
Parameter Symbol Value Units Sigma Reference Notes
absolute magnitude H 6.6   n/a E2018W58  

534626 (2014 UT224)          Discovered 2010-Oct-09 by Pan-STARRS 1 at Haleakala
Reference: Last Updated: 2019-05-29
Ephemeris | Orbit Diagram | Orbital Elements | Physical Parameters | Discovery Circumstances ]
ABOUT SSD CREDITS/AWARDS PRIVACY/COPYRIGHT GLOSSARY LINKS
FirstGov
(server date/time)  
NASA Home Page
Site Manager:   Ryan S. Park
Webmaster  Alan B. Chamberlin